Location: Arrien
(42.8963°N, 1.0429°E)
Time: 14:17:14
(UTC+00:00)

YUBILEINY - Visible Passes

Search period start: 11 April 2026 00:00
Search period end: 21 April 2026 00:00
Orbit: 1477 x 1509 km, 82.5° (Epoch: 11 April)

Date Brightness Start Highest point End Pass type
(mag) Time Alt. Az. Time Alt. Az. Time Alt. Az.
11 Apr ? 00:05:42 10° N 00:13:47 65° ENE 00:13:47 65° ENE visible
11 Apr ? 02:03:34 10° NNW 02:09:41 27° WNW 02:09:41 27° WNW visible
11 Apr ? 23:16:22 10° N 23:24:21 38° ENE 23:24:30 38° ENE visible
12 Apr ? 01:13:05 10° NNW 01:20:23 48° WNW 01:20:23 48° WNW visible
12 Apr ? 22:27:34 10° NNE 22:33:56 22° ENE 22:35:14 21° ENE visible
13 Apr ? 00:23:07 10° N 00:31:07 77° NNW 00:31:07 77° NNW visible
13 Apr ? 02:22:13 10° NW 02:27:01 17° WNW 02:27:01 17° WNW visible
13 Apr ? 21:40:33 10° NE 21:43:00 11° NE 21:45:27 10° ENE visible
13 Apr ? 23:33:32 10° N 23:41:51 56° ENE 23:41:51 56° ENE visible
14 Apr ? 01:31:01 10° NNW 01:37:45 32° WNW 01:37:45 32° WNW visible
14 Apr ? 22:44:19 10° N 22:51:56 32° ENE 22:52:36 32° ENE visible
15 Apr ? 00:40:43 10° NNW 00:48:30 57° WNW 00:48:30 57° WNW visible
15 Apr ? 21:55:48 10° NNE 22:01:22 18° ENE 22:03:21 17° ENE visible
15 Apr ? 23:50:53 10° N 23:59:15 80° NE 23:59:15 80° NE visible
16 Apr ? 01:49:21 10° NW 01:55:09 21° WNW 01:55:09 21° WNW visible
16 Apr ? 23:01:24 10° N 23:09:46 48° ENE 23:10:00 48° ENE visible
17 Apr ? 00:58:31 10° NNW 01:05:54 39° W 01:05:54 39° W visible
17 Apr ? 22:12:20 10° N 22:19:30 27° ENE 22:20:47 26° E visible
18 Apr ? 00:08:24 10° NNW 00:16:41 69° WNW 00:16:41 69° WNW visible
18 Apr ? 02:08:49 10° NW 02:12:04 13° WNW 02:12:34 13° WNW visible
18 Apr ? 21:24:12 10° NNE 21:28:47 15° ENE 21:31:33 13° ENE visible
18 Apr ? 23:18:40 10° N 23:27:24 70° E 23:27:27 70° E visible
19 Apr ? 01:16:40 10° NNW 01:23:20 26° W 01:23:21 26° W visible
19 Apr ? 22:29:18 10° N 22:37:24 40° ENE 22:38:15 40° E visible
20 Apr ? 00:26:07 10° NNW 00:34:09 47° W 00:34:09 47° W visible
20 Apr ? 21:40:25 10° NNE 21:47:01 23° ENE 21:49:03 21° E visible
20 Apr ? 23:36:07 10° N 23:44:51 81° W 23:44:57 81° WSW visible
